Location: Newark
(13.6797°N, 8.5297°E)
Time: 01:02:17
(UTC+00:00)

A-11 Canister half - Visible Passes

Search period start: 17 January 2021 00:00
Search period end: 27 January 2021 00:00
Orbit: 1517 x 1683 km, 47.2° (Epoch: 16 January)

Date Brightness Start Highest point End Pass type
(mag) Time Alt. Az. Time Alt. Az. Time Alt. Az.
17 Jan 10.1 04:23:51 10° NNW 04:32:13 37° NE 04:40:55 10° ESE visible
17 Jan 8.9 19:26:29 10° SW 19:36:08 80° NW 19:38:01 62° NNE visible
17 Jan 11.2 21:35:45 10° WNW 21:36:16 11° WNW 21:36:16 11° WNW visible
18 Jan 10.1 04:02:30 15° NNW 04:09:15 34° NE 04:17:43 10° ESE visible
18 Jan 8.9 19:03:32 10° SW 19:13:14 86° NW 19:16:56 43° NE visible
18 Jan 10.9 21:12:19 10° W 21:15:11 16° WNW 21:15:11 16° WNW visible
19 Jan 10.2 03:41:12 20° N 03:46:17 32° NE 03:54:30 10° E visible
19 Jan 8.9 18:40:36 10° SW 18:50:20 88° SE 18:55:51 29° NE visible
19 Jan 10.6 20:48:55 10° W 20:54:05 21° NW 20:54:05 21° NW visible
20 Jan 10.2 03:19:56 24° N 03:23:19 29° NE 03:31:15 10° E visible
20 Jan 9.1 05:19:06 10° NW 05:28:26 67° SW 05:38:07 10° SSE visible
20 Jan 9.0 18:17:40 10° SW 18:27:26 82° SE 18:34:45 19° NE visible
20 Jan 10.4 20:25:34 10° W 20:32:48 24° NW 20:32:59 24° NW visible
21 Jan 10.2 02:58:44 26° NNE 03:00:19 27° NE 03:08:00 10° E visible
21 Jan 9.0 04:56:58 13° NW 05:05:32 73° SW 05:15:14 10° SSE visible
21 Jan 9.0 17:54:47 10° SW 18:04:31 76° SE 18:13:37 11° NE visible
21 Jan 10.3 20:02:15 10° W 20:09:48 26° NW 20:11:52 24° NNW visible
22 Jan 10.4 02:37:34 25° NE 02:37:34 25° NE 02:44:41 10° E visible
22 Jan 9.0 04:35:48 21° NW 04:42:38 79° SW 04:52:21 10° SE visible
22 Jan 9.1 17:31:54 10° SSW 17:41:38 70° SE 17:51:00 10° NE visible
22 Jan 10.3 19:38:57 10° W 19:46:49 28° NW 19:50:43 21° N visible
23 Jan 10.6 02:16:26 21° NE 02:16:26 21° NE 02:21:21 10° E visible
23 Jan 8.9 04:14:40 32° NW 04:19:43 85° SW 04:29:26 10° SE visible
23 Jan 10.2 19:15:42 10° W 19:23:49 30° NW 19:29:32 17° N visible
24 Jan 10.9 01:55:19 16° ENE 01:55:19 16° ENE 01:57:59 10° E visible
24 Jan 8.9 03:53:34 48° NW 03:56:50 89° NE 04:06:30 10° SE visible
24 Jan 10.2 18:52:28 10° WSW 19:00:51 33° NW 19:08:18 12° NNE visible
25 Jan 11.2 01:34:14 11° ENE 01:34:14 11° ENE 01:34:35 10° E visible
25 Jan 8.8 03:32:29 68° NNW 03:33:56 83° NE 03:43:34 10° SE visible
25 Jan 10.3 05:32:13 10° W 05:38:28 20° SW 05:44:53 10° S visible
25 Jan 10.1 18:29:15 10° WSW 18:37:52 36° NW 18:46:18 10° NNE visible
26 Jan 8.9 03:11:23 76° ENE 03:11:23 76° ENE 03:20:37 10° SE visible
26 Jan 10.2 05:09:38 12° W 05:15:34 22° SW 05:22:26 10° S visible
26 Jan 10.1 18:06:04 10° WSW 18:14:55 39° NW 18:23:32 10° NNE visible
